CAPE
2 3 6 4 7 6 6 14 5 16 25 32 29 3 4 22 6 0 10 49 104 201 181 136 146 172 5 0 0 0 5 0 0 5 2 0 0 12 25 30 45 0 0 1 3 0 0
1 5 4 5 4 7 9 10 16 18 24 26 27 6 9 5 1 5 14 54 100 194 173 231 166 139 5 0 0 0 1 0 0 1 0 11 0 14 33 36 70 29 28 47 41 1 0
2 3 2 4 6 6 8 8 12 13 18 23 25 16 10 1 0 2 0 27 83 175 197 171 200 26 0 0 2 20 0 0 0 0 0 28 0 38 25 46 24 15 20 38 24 32 10
2 4 4 5 1 5 7 8 8 4 9 9 23 20 2 1 0 0 0 0 19 119 159 223 235 23 0 0 0 2 0 27 5 10 4 48 6 22 9 0 18 1 5 8 0 19 1
2 2 3 5 6 8 8 3 6 9 11 2 13 12 17 1 0 0 0 7 5 104 84 147 2 0 0 5 0 0 3 35 56 25 38 37 50 38 4 2 0 3 0 0 0 0 0
0 2 5 6 3 4 3 9 3 6 9 11 6 8 10 2 0 0 0 0 15 1 9 28 2 0 0 0 2 13 5 1 54 36 32 29 33 6 0 0 0 0 0 0 0 0 0
0 1 3 2 3 5 6 7 6 6 4 7 7 5 4 6 0 0 0 0 0 0 0 0 0 0 0 0 4 16 0 3 76 33 17 17 0 0 0 0 0 0 0 0 0 0 0
0 1 2 4 1 1 5 1 8 7 10 3 3 1 4 3 4 0 0 0 0 0 0 0 0 0 0 0 0 0 0 2 62 16 27 10 0 0 0 1 2 0 0 0 0 0 0
0 1 1 4 3 1 1 1 4 8 7 12 3 1 5 2 3 0 0 0 0 0 0 0 0 3 15 10 0 0 0 10 3 34 3 3 0 7 15 14 1 0 0 0 0 0 0
0 0 1 1 0 1 2 5 6 5 5 9 8 2 4 0 0 0 0 0 0 0 0 0 0 0 7 5 0 0 0 5 7 0 5 12 1 3 15 20 0 0 0 0 0 0 0
0 0 1 1 3 2 1 5 9 6 7 6 10 3 2 0 0 0 0 0 0 0 0 0 0 0 0 1 0 0 3 9 1 5 1 0 0 1 0 10 0 0 0 0 0 0 0
0 0 1 1 1 3 3 0 5 1 4 3 4 3 0 0 1 0 0 0 0 0 0 0 0 0 0 0 10 8 16 11 0 0 0 0 0 0 5 3 0 0 0 0 0 0 0
0 0 1 2 1 2 4 4 1 4 3 1 1 2 1 0 0 0 0 0 0 0 0 0 1 0 0 0 2 3 4 3 0 0 0 3 1 0 0 11 3 0 0 2 0 0 0
0 0 1 1 1 3 2 4 5 2 1 1 0 0 0 0 0 0 0 0 0 0 0 0 3 1 1 1 2 0 0 0 0 0 0 0 1 0 0 0 0 1 3 0 0 0 0
0 0 0 1 1 0 2 3 4 2 1 1 0 0 0 0 0 0 0 0 0 0 0 0 2 2 6 6 0 0 0 0 0 0 0 0 0 1 0 0 0 0 7 0 0 0 0
0 0 0 0 0 0 2 3 2 3 0 0 0 0 0 0 0 0 0 0 0 0 0 0 0 0 0 1 1 0 0 0 0 0 0 0 0 0 0 0 0 0 0 0 0 0 0
0 0 0 0 0 0 1 2 1 2 0 0 0 0 0 0 0 0 0 0 0 0 0 0 0 0 0 0 0 0 0 0 0 0 0 0 0 2 2 1 1 0 2 0 0 0 0
0 0 0 0 0 0 0 1 2 0 0 0 0 0 0 0 0 0 0 0 0 0 0 0 0 0 0 0 0 0 0 0 0 2 0 0 0 0 1 1 0 0 0 0 0 0 0
0 0 0 0 0 0 0 1 1 0 0 0 0 0 0 0 0 0 0 0 0 0 0 0 0 0 0 0 0 0 0 0 0 1 0 0 0 0 0 0 0 1 0 4 0 0 0
0 0 0 0 0 0 0 0 0 0 0 0 0 0 0 1 0 0 0 0 0 0 0 0 0 0 0 0 0 0 0 0 0 0 0 0 0 0 0 0 0 1 1 2 2 0 0
0 0 0 0 0 0 0 0 0 0 0 0 0 0 0 0 0 0 0 0 0 0 0 0 0 0 0 0 0 0 0 0 0 0 0 0 0 0 0 0 0 0 0 0 2 1 0
0 0 0 0 0 0 0 0 0 0 0 0 0 0 0 0 0 0 0 1 0 0 0 0 0 0 0 0 0 0 0 0 0 0 0 0 0 0 0 0 0 0 0 0 0 0 0
0 0 0 0 0 1 0 0 0 0 0 0 0 0 0 0 0 0 0 0 0 0 0 0 0 0 0 0 0 0 0 0 0 0 0 0 0 0 0 0 0 0 0 0 0 0 0
0 0 0 0 0 0 0 1 0 0 0 0 0 0 0 0 0 0 0 0 0 0 0 0 0 0 0 0 0 0 0 0 0 0 0 0 0 0 0 0 0 0 0 0 0 0 0
0 0 0 0 0 0 0 0 0 0 0 0 0 0 0 0 0 0 0 0 0 0 0 0 9 0 0 0 0 0 0 0 0 0 0 0 0 0 0 0 0 0 0 0 0 0 0
0 0 0 0 0 0 0 0 0 0 0 0 0 0 0 0 0 0 0 0 0 0 0 0 1 0 3 0 0 0 0 0 0 0 0 0 0 0 0 0 0 0 0 0 0 0 0
0 0 0 0 0 0 0 0 0 0 0 0 0 0 0 0 0 0 0 0 0 0 0 0 0 1 0 2 6 2 0 0 0 0 0 2 3 0 0 2 0 0 0 0 0 0 0
0 0 2 0 0 0 0 0 0 0 0 0 0 0 0 0 0 0 0 0 0 0 0 0 1 1 1 2 2 0 0 0 0 0 0 0 0 1 2 1 0 0 0 0 0 0 0
0 1 3 0 0 0 0 0 0 0 0 0 1 2 0 1 0 0 0 0 0 0 0 0 0 0 3 0 0 0 0 0 0 0 0 0 0 0 0 0 0 0 0 0 0 0 0
CIN
-0 -0 -0 -0 -0 -1 -1 -0 -1 -0 -0 -0 -0 -1 -0 -0 -0 -0 -21 -20 -12 -5 -13 -10 -3 -2 -2 -0 -0 -0 -14 -0 -0 -5 -0 -0 -0 -3 -2 -10 -15 -4 -0 -2 -9 -1 -0
-0 -1 -0 -0 -0 -0 -0 -1 -1 -0 -0 -1 -0 -0 -0 -0 -0 -0 -2 -17 -20 -13 -32 -8 -3 -1 -48 -0 -0 -0 -11 -0 -0 -0 -0 -12 -0 -6 -3 -7 -4 -13 -11 -10 -6 -1 -0
-0 -0 -0 -0 -0 -0 -0 -0 -1 -0 -1 -0 -0 -0 -0 -0 -0 -0 -0 -26 -27 -2 -7 -7 -0 -70 -1 -0 -16 -23 -0 -0 -0 -0 -0 -7 -0 -3 -13 -7 -18 -13 -18 -13 -19 -16 -14
-0 -0 -0 -0 -0 -0 -0 -0 -0 -0 -0 -1 -0 -1 -0 -0 -0 -0 -0 -0 -40 -23 -17 -0 -0 -71 -0 -2 -0 -8 -1 -14 -22 -43 -24 -15 -19 -22 -5 -0 -6 -2 -13 -2 -0 -21 -13
-0 -0 -0 -0 -0 -1 -0 -1 -0 -0 -0 -1 -0 -2 -0 -0 -0 -0 -0 -0 -9 -10 -17 -1 -13 -0 -0 -7 -0 -0 -13 -2 -3 -6 -12 -6 -26 -17 -5 -1 -0 -6 -0 -0 -0 -0 -0
-0 -0 -0 -0 -0 -0 -1 -0 -2 -0 -0 -0 -1 -1 -0 -0 -0 -0 -0 -0 -14 -6 -3 -22 -6 -0 -0 -0 -3 -19 -17 -13 -1 -10 -0 -1 -10 -10 -0 -0 -0 -0 -0 -0 -0 -0 -0
-0 -0 -0 -0 -0 -0 -0 -0 -0 -0 -0 -0 -0 -1 -1 -0 -0 -0 -0 -0 -0 -0 -0 -0 -0 -0 -0 -0 -4 -10 -0 -45 -2 -3 -0 -1 -0 -0 -0 -0 -0 -0 -0 -0 -0 -0 -0
-0 -0 -0 -0 -0 -1 -0 -0 -1 -0 -0 -1 -1 -1 -2 -0 -0 -0 -0 -0 -0 -0 -0 -0 -0 -2 -0 -0 -0 -0 -0 -2 -0 -0 -1 -0 -0 -0 -0 -3 -8 -0 -0 -0 -0 -0 -0
-0 -0 -0 -0 -1 -0 -0 -0 -0 -0 -0 -0 -0 -1 -1 -0 -0 -0 -0 -0 -0 -0 -0 -0 -0 -2 -5 -11 -0 -0 -0 -1 -0 -0 -0 -0 -0 -6 -13 -10 -2 -0 -0 -0 -0 -0 -0
-0 -0 -0 -0 -0 -0 -0 -0 -0 -0 -0 -0 -0 -1 -1 -0 -0 -0 -0 -0 -0 -0 -0 -0 -0 -0 -13 -31 -0 -0 -2 -0 -0 -0 -0 -1 -9 -6 -8 -4 -0 -0 -0 -0 -0 -0 -0
-0 -0 -0 -0 -0 -0 -0 -0 -0 -0 -0 -0 -0 -0 -1 -0 -0 -0 -0 -0 -0 -0 -0 -0 -0 -0 -0 -0 -0 -0 -2 -0 -0 -0 -0 -0 -2 -5 -1 -6 -0 -0 -0 -0 -0 -0 -0
-0 -0 -0 -0 -0 -0 -0 -0 -0 -0 -0 -0 -0 -0 -0 -0 -0 -0 -0 -0 -0 -0 -0 -0 -0 -0 -0 -0 -0 -0 -0 -2 -0 -0 -0 -0 -0 -0 -19 -26 -0 -0 -0 -0 -0 -0 -0
-0 -0 -0 -0 -0 -0 -0 -0 -0 -0 -0 -0 -0 -0 -0 -0 -0 -0 -0 -0 -0 -0 -0 -0 -0 -0 -0 -0 -2 -1 -0 -0 -0 -0 -0 -2 -6 -0 -0 -11 -24 -8 -1 -8 -1 -0 -0
-0 -0 -0 -0 -0 -0 -0 -0 -0 -0 -0 -0 -0 -0 -0 -0 -0 -0 -0 -0 -0 -0 -0 -0 -0 -8 -1 -1 -1 -0 -0 -0 -0 -0 -0 -0 -0 -0 -0 -0 -0 -13 -14 -1 -0 -0 -0
-0 -0 -0 -0 -0 -0 -0 -0 -0 -0 -0 -0 -0 -0 -0 -0 -0 -0 -0 -0 -0 -0 -0 -0 -4 -6 -0 -1 -0 -0 -0 -0 -0 -0 -0 -0 -0 -0 -0 -0 -0 -0 -7 -0 -0 -0 -0
-0 -0 -0 -0 -0 -0 -0 -0 -0 -0 -0 -0 -0 -0 -0 -0 -0 -0 -0 -0 -0 -0 -0 -0 -0 -0 -0 -1 -1 -0 -0 -0 -0 -0 -0 -0 -0 -0 -0 -0 -0 -0 -0 -2 -0 -0 -0
-0 -0 -0 -0 -0 -0 -0 -0 -0 -0 -0 -0 -0 -0 -0 -0 -0 -0 -0 -0 -0 -0 -0 -0 -0 -0 -0 -0 -0 -0 -0 -0 -0 -0 -0 -0 -0 -0 -0 -0 -0 -0 -6 -0 -0 -0 -0
-0 -0 -0 -0 -0 -0 -0 -0 -0 -0 -0 -0 -0 -0 -0 -0 -0 -0 -0 -0 -0 -0 -0 -0 -0 -0 -0 -0 -6 -0 -0 -0 -0 -20 -0 -0 -0 -0 -0 -0 -0 -0 -0 -0 -0 -0 -0
-0 -0 -0 -0 -0 -0 -0 -0 -0 -0 -0 -0 -0 -0 -0 -0 -0 -0 -0 -0 -0 -0 -0 -0 -0 -0 -0 -0 -0 -0 -0 -0 -0 -0 -0 -0 -0 -0 -0 -0 -0 -0 -0 -5 -0 -0 -0
-0 -0 -0 -0 -0 -0 -0 -0 -0 -0 -0 -0 -0 -0 -0 -0 -0 -0 -0 -0 -0 -0 -0 -0 -0 -0 -0 -0 -0 -0 -0 -0 -0 -0 -0 -0 -0 -0 -0 -0 -0 -0 -0 -0 -0 -0 -0
-0 -0 -0 -0 -0 -0 -0 -0 -0 -0 -0 -0 -0 -0 -0 -0 -0 -0 -0 -0 -0 -0 -0 -0 -0 -0 -0 -0 -0 -0 -0 -0 -0 -0 -0 -0 -0 -0 -0 -0 -0 -0 -0 -0 -0 -0 -0
-0 -0 -0 -0 -0 -0 -0 -0 -0 -0 -0 -0 -0 -0 -0 -0 -0 -0 -0 -10 -1 -0 -0 -0 -0 -0 -0 -0 -0 -0 -0 -0 -0 -0 -0 -0 -0 -0 -0 -0 -0 -0 -0 -0 -0 -0 -0
-0 -0 -0 -0 -0 -0 -0 -0 -0 -0 -0 -0 -0 -0 -0 -0 -0 -0 -0 -0 -0 -0 -0 -0 -0 -0 -0 -0 -0 -0 -0 -0 -0 -0 -0 -0 -0 -0 -0 -0 -0 -0 -0 -0 -0 -0 -0
-0 -0 -0 -0 -0 -0 -0 -0 -0 -0 -0 -0 -0 -0 -0 -0 -0 -0 -0 -0 -0 -0 -7 -0 -0 -0 -0 -0 -0 -0 -0 -0 -0 -0 -0 -0 -0 -0 -0 -0 -0 -0 -0 -0 -0 -0 -0
-0 -0 -0 -0 -0 -0 -0 -0 -0 -0 -0 -0 -0 -0 -0 -0 -0 -0 -0 -0 -0 -0 -0 -0 -16 -3 -0 -0 -0 -0 -0 -0 -0 -0 -0 -0 -0 -0 -0 -0 -0 -0 -0 -0 -0 -0 -0
-0 -0 -0 -0 -0 -0 -0 -0 -0 -0 -0 -0 -0 -0 -0 -0 -0 -0 -0 -0 -0 -0 -0 -0 -25 -0 -64 -2 -0 -3 -0 -0 -0 -0 -0 -0 -0 -0 -0 -0 -0 -0 -0 -0 -0 -0 -0
-0 -0 -0 -0 -0 -0 -0 -0 -0 -0 -0 -0 -0 -0 -0 -0 -0 -0 -0 -0 -0 -0 -0 -0 -0 -11 -0 -17 -4 -6 -0 -0 -1 -0 -2 -3 -5 -0 -0 -4 -0 -0 -0 -0 -0 -0 -0
-0 -0 -0 -0 -0 -0 -0 -0 -0 -0 -0 -0 -0 -0 -0 -0 -0 -0 -0 -0 -0 -0 -0 -0 -1 -2 -11 -5 -9 -10 -0 -0 -0 -0 -0 -0 -0 -4 -6 -2 -0 -0 -0 -0 -0 -0 -0
-0 -0 -0 -0 -0 -0 -0 -0 -0 -0 -0 -0 -2 -7 -2 -1 -0 -0 -0 -0 -0 -0 -0 -0 -0 -0 -0 -2 -0 -0 -12 -0 -0 -0 -0 -0 -0 -0 -0 -0 -0 -0 -0 -0 -0 -0 -0
Wind_Speed
27 29 31 32 32 31 29 26 24 25 26 28 31 33 34 33 30 27 22 19 18 18 18 19 19 15 15 22 29 24 25 27 32 36 33 29 32 32 30 28 29 43 41 45 34 32 37
26 28 30 31 30 31 30 27 25 25 23 28 30 32 30 28 27 26 22 18 16 17 17 19 18 16 17 23 21 24 28 32 33 36 32 31 32 27 28 26 27 32 32 32 30 33 34
25 26 29 30 30 31 30 28 26 24 24 28 27 27 24 23 20 21 18 16 13 13 11 16 19 17 19 23 18 18 27 32 32 33 33 32 27 27 22 22 22 24 29 30 30 28 27
24 26 27 29 30 31 31 30 27 25 24 25 24 22 23 22 21 19 16 14 12 9 8 13 16 16 19 18 17 20 24 25 26 31 32 26 25 22 22 20 24 25 28 35 32 29 29
23 24 26 27 30 30 31 30 28 25 24 23 22 20 21 19 19 19 16 12 12 13 14 15 13 16 17 15 15 20 20 25 29 33 34 23 22 22 22 22 23 29 42 39 34 32 29
22 22 24 26 28 29 30 30 29 26 24 22 23 19 18 17 16 16 15 13 14 16 16 14 14 15 16 16 18 16 19 20 30 35 27 20 22 25 24 25 30 31 38 40 36 35 33
21 22 24 25 26 28 30 29 29 27 24 22 21 20 16 14 14 14 17 19 20 21 20 18 14 15 15 12 13 13 18 22 25 30 29 24 27 31 24 26 21 19 26 34 32 28 34
20 21 22 25 25 27 29 29 30 29 24 21 21 19 15 11 12 14 19 23 23 21 26 20 13 13 15 14 15 17 18 24 29 38 22 24 32 26 20 22 22 19 22 31 29 24 34
21 20 21 24 24 26 29 29 29 27 23 19 20 19 15 11 12 15 17 18 17 18 22 21 13 12 14 13 16 23 21 17 32 32 24 25 25 23 22 19 20 20 20 24 29 28 27
20 20 21 23 25 26 28 29 29 29 26 20 19 17 14 14 15 16 16 16 16 16 25 24 13 12 15 20 16 19 21 24 22 30 19 21 24 23 23 22 20 19 18 20 21 26 40
18 19 20 22 24 26 27 27 30 29 28 18 16 14 14 14 16 17 17 18 17 17 29 21 16 15 18 18 24 18 21 23 27 29 19 22 19 22 21 21 16 17 14 16 19 26 29
17 17 19 21 24 25 27 27 30 31 30 24 15 13 14 16 15 15 18 18 18 23 29 20 18 17 17 13 17 17 20 16 17 13 9 13 15 17 21 19 18 14 13 13 15 20 36
15 16 20 21 24 26 26 26 30 31 31 28 16 10 14 15 17 17 17 18 21 26 18 20 20 20 17 17 16 17 15 18 22 18 16 14 20 18 19 16 18 16 14 19 25 28 35
17 17 20 22 25 29 27 27 30 31 31 29 17 15 13 14 15 15 17 19 24 21 20 21 24 27 16 17 17 16 13 17 20 14 12 16 20 19 20 19 19 17 18 17 28 31 30
16 18 19 23 25 30 28 30 31 31 31 28 19 16 15 13 13 13 15 17 18 19 21 21 24 26 25 14 19 18 17 20 20 19 15 15 15 21 19 19 17 18 18 17 20 21 27
15 17 19 22 24 29 30 31 30 31 31 27 18 17 15 14 12 14 14 14 15 17 18 18 18 21 23 20 17 18 23 23 21 22 18 17 18 20 14 14 16 16 13 21 21 26 31
13 16 19 22 25 29 33 34 30 30 29 23 19 19 15 13 13 12 12 12 12 16 12 17 17 19 21 23 16 17 18 18 16 14 9 9 15 14 9 13 14 15 17 16 17 19 24
11 15 18 23 25 29 35 35 31 27 28 22 18 21 16 14 14 12 12 11 12 13 14 14 11 18 22 21 22 14 13 15 11 8 10 10 11 13 14 15 16 13 16 16 20 22 25
10 14 18 22 25 28 34 34 33 30 26 19 20 19 17 15 17 14 10 9 13 13 15 16 15 13 15 19 14 13 15 15 6 7 6 7 12 13 16 23 21 21 19 20 23 24 23
9 13 17 21 24 27 32 34 35 34 27 20 20 22 18 15 14 12 11 8 6 14 16 17 17 16 16 16 15 13 12 12 8 2 3 2 15 17 16 20 12 11 11 11 11 13 26
9 12 16 20 24 26 31 33 36 36 25 20 22 20 17 18 13 13 9 8 6 15 16 18 18 17 17 17 15 15 13 12 12 8 10 8 17 18 22 19 14 14 7 8 17 20 15
8 12 15 20 22 26 29 32 35 37 22 23 21 19 16 16 13 12 10 9 6 11 17 18 20 18 18 17 15 14 12 14 16 13 13 16 19 19 24 23 24 28 22 13 10 20 33
7 11 15 19 21 25 27 30 33 36 27 24 20 18 16 17 14 11 11 7 8 14 17 17 19 21 18 16 15 18 13 14 14 14 15 18 18 21 24 23 25 31 30 20 21 19 12
6 9 14 17 20 22 26 29 30 31 29 23 21 19 19 19 14 12 11 8 6 12 20 19 17 18 18 19 16 15 15 15 13 14 13 14 16 19 23 22 26 21 23 24 23 25 17
4 8 12 16 18 21 24 26 28 28 26 26 22 19 18 19 14 12 12 8 5 17 21 20 17 17 19 16 16 18 19 18 18 15 12 13 13 17 20 20 30 27 21 19 20 26 25
3 7 11 14 17 21 23 25 25 27 27 22 24 21 17 19 15 13 12 10 6 9 23 21 18 19 18 17 15 16 17 16 16 15 16 14 16 13 17 20 20 19 19 18 18 25 21
2 5 9 13 16 19 21 22 24 26 25 23 21 22 18 18 13 14 12 11 8 15 22 23 23 19 18 16 17 17 17 15 15 15 13 12 13 11 15 20 24 24 24 16 18 20 25
2 4 8 11 15 18 20 22 24 25 25 23 22 22 20 17 12 12 14 11 8 14 22 22 22 22 21 19 18 19 20 19 19 18 14 9 12 15 14 18 24 18 16 15 19 25 25
3 4 7 10 14 17 19 21 23 23 25 23 22 21 20 15 13 14 12 7 5 11 20 20 20 22 22 21 21 20 22 19 21 22 19 18 14 16 11 15 18 18 19 21 22 23 23
Wind_Direction
27 26 25 23 24 23 24 24 26 23 22 20 20 20 22 28 35 38 49 65 48 26 8 341 332 339 306 266 252 260 245 248 241 228 227 226 222 225 231 236 232 231 237 238 243 243 246
26 25 24 25 25 24 23 24 25 24 24 22 24 25 31 36 40 43 53 66 65 57 38 320 321 331 299 261 262 256 249 249 233 219 222 225 224 224 233 233 230 233 235 235 238 240 242
25 26 24 25 25 24 24 24 24 24 25 24 28 32 38 43 49 52 59 64 77 74 89 21 338 322 282 248 259 254 248 241 223 216 218 225 223 224 231 229 234 235 233 233 235 235 241
22 22 24 25 24 24 24 23 25 26 27 27 31 36 39 46 51 59 65 71 79 86 81 34 8 315 252 260 246 234 241 225 207 208 221 219 220 228 229 240 230 239 234 231 236 234 240
23 23 23 25 24 24 24 23 25 27 27 30 33 37 39 49 55 56 61 72 81 80 91 51 76 241 230 239 239 239 232 209 206 207 208 212 213 227 227 225 228 237 231 232 235 234 240
21 23 23 24 24 24 23 22 24 25 29 29 32 37 41 51 60 61 60 75 88 88 92 118 191 211 204 216 219 232 221 213 207 203 209 209 218 222 225 220 222 235 233 231 235 235 240
21 22 22 22 23 22 21 20 21 24 26 29 30 34 41 51 61 70 67 79 76 73 85 101 174 195 210 238 226 221 218 206 205 206 212 215 215 216 221 228 245 248 241 235 241 247 240
19 22 22 21 23 20 19 19 18 19 23 27 28 32 41 59 67 69 74 73 75 84 75 109 178 211 201 223 223 210 207 201 205 203 211 215 219 221 225 230 241 241 245 240 246 255 242
13 19 21 19 21 19 17 17 16 18 19 25 26 30 40 62 77 81 80 87 95 93 78 93 163 186 207 218 201 194 194 218 213 206 210 212 218 219 223 230 233 246 246 247 248 248 255
13 17 20 18 17 17 16 15 13 13 15 19 25 28 42 58 70 80 76 95 102 97 72 80 164 191 185 168 186 202 219 213 208 206 201 220 218 218 225 233 238 248 257 256 260 248 245
15 17 20 18 16 16 15 14 12 11 12 17 23 30 44 64 64 73 82 88 92 91 60 96 150 182 171 164 173 207 214 210 202 203 216 220 213 213 225 233 242 251 260 268 263 259 259
16 20 21 18 15 14 14 14 11 10 11 14 21 33 51 52 60 77 76 78 80 69 64 100 141 188 191 194 197 194 197 207 208 192 196 216 223 229 236 238 246 256 263 276 279 271 256
18 21 18 19 14 12 13 14 12 11 10 13 21 52 68 59 55 65 69 68 58 58 100 95 117 179 205 201 199 183 195 193 191 198 210 219 222 233 233 234 246 253 255 266 265 263 262
8 15 15 17 14 10 13 14 12 12 11 12 32 74 78 58 48 57 49 55 50 79 97 111 107 123 207 205 200 196 200 193 199 208 207 221 224 231 237 241 246 251 254 266 262 265 273
7 9 16 14 14 8 13 12 12 13 14 15 36 57 70 74 50 45 40 46 58 88 106 117 111 118 135 221 209 210 205 198 208 216 229 229 242 234 245 246 252 256 259 277 285 294 285
9 9 14 14 14 8 10 11 14 14 15 19 41 46 56 76 60 30 41 50 48 120 107 112 133 127 138 209 225 230 218 223 223 219 232 241 242 243 264 266 270 274 278 271 279 282 280
11 11 14 15 15 9 3 5 14 15 17 26 43 42 53 86 66 70 60 47 34 252 359 127 151 144 132 147 248 251 245 256 262 258 295 277 270 264 270 269 261 269 275 278 288 282 284
17 16 16 12 13 11 358 2 13 18 18 33 40 31 48 71 40 50 57 53 351 327 302 302 344 195 153 128 166 267 272 276 267 259 263 280 289 282 281 286 282 269 270 270 276 282 278
19 17 17 15 16 14 0 3 10 17 21 34 35 39 47 52 35 42 73 65 336 323 303 289 290 303 268 230 261 264 249 259 288 258 272 276 300 287 283 276 279 274 271 272 277 286 280
19 21 21 19 17 16 5 360 6 13 21 36 33 26 38 38 36 42 48 82 27 313 299 289 289 290 287 275 277 276 280 280 292 7 350 351 285 280 277 281 300 278 261 226 252 259 281
18 20 19 19 19 18 6 2 359 7 28 33 30 29 38 30 43 36 48 82 100 306 298 291 287 285 282 279 288 290 289 284 286 299 299 305 289 285 280 294 302 303 301 238 211 213 261
26 24 24 20 21 18 12 6 0 3 32 30 27 28 37 31 36 35 38 52 102 311 294 292 281 284 278 283 288 297 300 288 283 286 290 290 289 293 285 290 288 281 291 293 222 212 225
35 26 19 20 25 22 18 12 7 8 23 28 34 35 37 30 36 37 40 52 69 322 293 296 284 279 280 285 294 287 296 299 296 291 285 287 292 292 290 300 297 286 282 282 287 290 272
44 29 21 25 23 23 21 16 12 14 25 32 33 37 33 23 34 34 29 46 61 328 285 290 291 282 278 276 290 300 302 300 300 298 299 298 295 295 292 298 288 301 301 296 294 291 288
60 33 27 26 25 21 21 19 18 18 24 27 30 35 35 25 34 35 25 28 51 308 282 284 290 286 278 282 289 290 289 292 290 294 299 302 306 302 299 298 285 295 308 309 304 298 300
71 36 25 25 24 21 22 22 21 19 23 28 28 31 35 28 31 37 27 31 20 330 278 275 286 280 275 280 288 286 283 291 294 297 294 298 300 305 304 304 304 308 314 323 321 300 316
63 33 25 23 23 25 21 21 17 15 23 28 31 30 33 26 40 36 28 22 47 320 280 272 272 278 278 277 279 285 288 297 300 301 307 299 299 298 300 298 295 287 293 321 317 313 305
96 41 38 30 29 29 29 23 18 18 24 30 30 31 35 32 35 44 34 30 31 330 282 274 266 269 271 272 279 282 284 287 289 293 305 314 304 299 302 298 289 314 321 318 318 308 304
123 59 41 39 35 32 29 25 22 25 23 28 27 31 28 39 44 25 30 75 56 329 295 282 269 267 268 268 272 280 279 290 284 280 286 291 300 302 312 311 307 316 312 310 315 311 314